Location: Holyhead Bay
(53.3667°N, 4.6667°W)
Time: 14:07:49
(UTC+00:00)

IRIDIUM 33 DEB - Pass Details

Date: 27 September 2021
Orbit: 581 x 600 km, 86.4° (Epoch: 26 October)

Event Time Altitude Azimuth Distance (km) Brightness Sun altitude
Rises 03:55:35 0° 0° (N) 2,861 ? -20.7°
Reaches altitude 10° 03:57:57 10° 10° (N) 1,949 ? -20.4°
Maximum altitude 04:01:55 35° 77° (ENE) 962 ? -19.8°
Drops below altitude 10° 04:05:49 10° 144° (SE) 1,919 ? -19.3°
Sets 04:08:07 0° 154° (SSE) 2,810 ? -19.0°
